,,PA_Meas_PMT16A,,PR_Meas_QMR101_102,,RH_Meas_QMH101,,SR_Meas_QMS101,,TA_Meas_QMH101,,GenWind,,GenWind,
time,status,PA,status,PR,status,RH,status,SR,status,TA,status,DirAvg,status,SpdAvg,
2013-10-21, 00:00:04,VALID,918.52,VALID,0,VALID,96.4515,VALID,0.107441,VALID,18.1431,VALID,137,VALID,0,
2013-10-21, 00:01:04,VALID,918.483,VALID,0,VALID,96.4438,VALID,0,VALID,18.164,VALID,113,VALID,0,
2013-10-21, 00:02:04,VALID,918.508,VALID,0,VALID,96.4743,VALID,0,VALID,18.1445,VALID,119,VALID,0,
2013-10-21, 00:03:04,VALID,918.493,VALID,0,VALID,96.5124,VALID,0,VALID,18.164,VALID,133,VALID,0,
2013-10-21, 00:04:04,VALID,918.476,VALID,0,VALID,96.5048,VALID,0,VALID,18.1445,VALID,130,VALID,0,
2013-10-21, 00:05:04,VALID,918.454,VALID,0,VALID,96.5429,VALID,0,VALID,18.1445,VALID,115,VALID,0,
2013-10-21, 00:06:04,VALID,918.425,VALID,0,VALID,96.5582,VALID,0,VALID,18.1236,VALID,113,VALID,0,
2013-10-21, 00:07:04,VALID,918.423,VALID,0,VALID,96.5811,VALID,0.107441,VALID,18.1236,VALID,112,VALID,0,
2013-10-21, 00:08:04,VALID,918.408,VALID,0,VALID,96.5811,VALID,0,VALID,18.1236,VALID,122,VALID,0,
2013-10-21, 00:09:04,VALID,918.422,VALID,0,VALID,96.6115,VALID,0,VALID,18.1236,VALID,114,VALID,0,
2013-10-21, 00:10:04,VALID,918.394,VALID,0,VALID,96.6039,VALID,0,VALID,18.1445,VALID,111,VALID,0,
2013-10-21, 00:11:04,VALID,918.415,VALID,0,VALID,96.5963,VALID,0,VALID,18.1236,VALID,112,VALID,0,
2013-10-21, 00:12:04,VALID,918.391,VALID,0,VALID,96.6268,VALID,0,VALID,18.1445,VALID,112,VALID,0,
2013-10-21, 00:13:04,VALID,918.399,VALID,0,VALID,96.6497,VALID,0.107441,VALID,18.1445,VALID,112,VALID,0,
2013-10-21, 00:14:04,VALID,918.402,VALID,0,VALID,96.6649,VALID,0,VALID,18.1236,VALID,112,VALID,0,
2013-10-21, 00:15:04,VALID,918.395,VALID,0,VALID,96.6573,VALID,0.107441,VALID,18.1236,VALID,115,VALID,0,
2013-10-21, 00:16:04,VALID,918.398,VALID,0,VALID,96.6878,VALID,0,VALID,18.1445,VALID,112,VALID,0,
2013-10-21, 00:17:04,VALID,918.403,VALID,0,VALID,96.6802,VALID,0,VALID,18.1236,VALID,112,VALID,0,
2013-10-21, 00:18:04,VALID,918.4,VALID,0,VALID,96.6954,VALID,0.107441,VALID,18.1236,VALID,108,VALID,0,
2013-10-21, 00:19:04,VALID,918.41,VALID,0,VALID,96.6878,VALID,0,VALID,18.1236,VALID,96,VALID,0,
2013-10-21, 00:20:04,VALID,918.411,VALID,0,VALID,96.703,VALID,0,VALID,18.1445,VALID,100,VALID,0,
2013-10-21, 00:21:04,VALID,918.385,VALID,0,VALID,96.7259,VALID,0,VALID,18.164,VALID,96,VALID,0,
2013-10-21, 00:22:04,VALID,918.386,VALID,0,VALID,96.7107,VALID,0,VALID,18.164,VALID,98,VALID,0,
2013-10-21, 00:23:04,VALID,918.357,VALID,0,VALID,96.7183,VALID,0,VALID,18.164,VALID,98,VALID,0,
2013-10-21, 00:24:04,VALID,918.358,VALID,0,VALID,96.6954,VALID,0,VALID,18.164,VALID,99,VALID,0,
2013-10-21, 00:25:04,VALID,918.33,VALID,0,VALID,96.6802,VALID,0,VALID,18.1835,VALID,99,VALID,0,
2013-10-21, 00:26:04,VALID,918.317,VALID,0,VALID,96.6725,VALID,0,VALID,18.2044,VALID,99,VALID,0,
2013-10-21, 00:27:04,VALID,918.277,VALID,0,VALID,96.642,VALID,0,VALID,18.1835,VALID,96,VALID,0,
2013-10-21, 00:28:04,VALID,918.256,VALID,0,VALID,96.642,VALID,0,VALID,18.1835,VALID,95,VALID,0,
2013-10-21, 00:29:04,VALID,918.218,VALID,0,VALID,96.5963,VALID,0,VALID,18.1835,VALID,113,VALID,0,
2013-10-21, 00:30:04,VALID,918.216,VALID,0,VALID,96.5887,VALID,0,VALID,18.203,VALID,132,VALID,0,
2013-10-21, 00:31:04,VALID,918.178,VALID,0,VALID,96.5582,VALID,0,VALID,18.203,VALID,130,VALID,0,
2013-10-21, 00:32:04,VALID,918.163,VALID,0,VALID,96.5506,VALID,0,VALID,18.203,VALID,122,VALID,0,
2013-10-21, 00:33:04,VALID,918.159,VALID,0,VALID,96.5506,VALID,0,VALID,18.203,VALID,115,VALID,0,
2013-10-21, 00:34:04,VALID,918.148,VALID,0,VALID,96.5201,VALID,0,VALID,18.2433,VALID,125,VALID,0,
2013-10-21, 00:35:04,VALID,918.106,VALID,0,VALID,96.4819,VALID,0,VALID,18.242,VALID,127,VALID,0,
2013-10-21, 00:36:04,VALID,918.097,VALID,0,VALID,96.4743,VALID,0,VALID,18.242,VALID,129,VALID,0,
2013-10-21, 00:37:04,VALID,918.074,VALID,0,VALID,96.4438,VALID,0,VALID,18.242,VALID,131,VALID,0,
2013-10-21, 00:38:04,VALID,918.05,VALID,0,VALID,96.4057,VALID,0,VALID,18.2615,VALID,127,VALID,0,
2013-10-21, 00:39:04,VALID,918.038,VALID,0,VALID,96.3752,VALID,0,VALID,18.2615,VALID,133,VALID,0,
2013-10-21, 00:40:04,VALID,917.999,VALID,0,VALID,96.3371,VALID,0,VALID,18.2809,VALID,135,VALID,0,
2013-10-21, 00:41:04,VALID,917.942,VALID,0,VALID,96.2533,VALID,0,VALID,18.2809,VALID,141,VALID,0,
2013-10-21, 00:42:04,VALID,917.905,VALID,0,VALID,96.2151,VALID,0,VALID,18.3004,VALID,142,VALID,0,
2013-10-21, 00:43:04,VALID,917.936,VALID,0,VALID,96.1541,VALID,0,VALID,18.3394,VALID,140,VALID,0,
2013-10-21, 00:44:04,VALID,917.87,VALID,0,VALID,96.1008,VALID,0,VALID,18.3394,VALID,140,VALID,0,
2013-10-21, 00:45:04,VALID,917.871,VALID,0,VALID,96.0322,VALID,0,VALID,18.3199,VALID,140,VALID,0,
2013-10-21, 00:46:04,VALID,917.847,VALID,0,VALID,95.9788,VALID,0,VALID,18.3199,VALID,140,VALID,0,
2013-10-21, 00:47:04,VALID,917.855,VALID,0,VALID,95.9102,VALID,0,VALID,18.3394,VALID,140,VALID,0,
2013-10-21, 00:48:04,VALID,917.842,VALID,0,VALID,95.9026,VALID,0,VALID,18.3394,VALID,140,VALID,0,
2013-10-21, 00:49:04,VALID,917.812,VALID,0,VALID,95.8568,VALID,0,VALID,18.3394,VALID,147,VALID,0,
2013-10-21, 00:50:04,VALID,917.77,VALID,0,VALID,95.8187,VALID,0,VALID,18.338,VALID,146,VALID,0,
2013-10-21, 00:51:04,VALID,917.778,VALID,0,VALID,95.7882,VALID,0.107441,VALID,18.338,VALID,143,VALID,0,
2013-10-21, 00:52:04,VALID,917.739,VALID,0,VALID,95.7349,VALID,0,VALID,18.3589,VALID,137,VALID,0,
2013-10-21, 00:53:04,VALID,917.71,VALID,0,VALID,95.712,VALID,0,VALID,18.338,VALID,135,VALID,0,
2013-10-21, 00:54:04,VALID,917.723,VALID,0,VALID,95.6586,VALID,0,VALID,18.338,VALID,127,VALID,0,
2013-10-21, 00:55:04,VALID,917.695,VALID,0,VALID,95.6281,VALID,0,VALID,18.3575,VALID,121,VALID,0,
2013-10-21, 00:56:04,VALID,917.682,VALID,0,VALID,95.5671,VALID,0.107441,VALID,18.3575,VALID,131,VALID,0,
2013-10-21, 00:57:04,VALID,917.684,VALID,0,VALID,95.4833,VALID,0,VALID,18.377,VALID,132,VALID,0,
2013-10-21, 00:58:04,VALID,917.703,VALID,0,VALID,95.4147,VALID,0.107441,VALID,18.3965,VALID,136,VALID,0,
2013-10-21, 00:59:04,VALID,917.703,VALID,0,VALID,95.3689,VALID,0,VALID,18.377,VALID,143,VALID,0,
2013-10-21, 01:00:04,VALID,917.686,VALID,0,VALID,95.3079,VALID,0,VALID,18.377,VALID,134,VALID,0,
2013-10-21, 01:01:04,VALID,917.689,VALID,0,VALID,95.247,VALID,0,VALID,18.3979,VALID,130,VALID,0,
2013-10-21, 01:02:04,VALID,917.674,VALID,0,VALID,95.1707,VALID,0,VALID,18.377,VALID,142,VALID,0,
2013-10-21, 01:03:04,VALID,917.664,VALID,0,VALID,95.1021,VALID,0.107441,VALID,18.377,VALID,138,VALID,0,
2013-10-21, 01:04:04,VALID,917.627,VALID,0,VALID,95.064,VALID,0.107441,VALID,18.377,VALID,136,VALID,0,
2013-10-21, 01:05:04,VALID,917.628,VALID,0,VALID,95.0106,VALID,0,VALID,18.3589,VALID,124,VALID,0,
2013-10-21, 01:06:04,VALID,917.632,VALID,0,VALID,95.0335,VALID,0,VALID,18.3589,VALID,124,VALID,0,
2013-10-21, 01:07:04,VALID,917.577,VALID,0,VALID,95.0564,VALID,0,VALID,18.3589,VALID,124,VALID,0,
2013-10-21, 01:08:04,VALID,917.571,VALID,0,VALID,95.0716,VALID,0,VALID,18.3603,VALID,137,VALID,0,
2013-10-21, 01:09:04,VALID,917.547,VALID,0,VALID,95.1097,VALID,0,VALID,18.3603,VALID,135,VALID,0,
2013-10-21, 01:10:04,VALID,917.506,VALID,0,VALID,95.1555,VALID,0,VALID,18.3394,VALID,135,VALID,0,
2013-10-21, 01:11:04,VALID,917.485,VALID,0,VALID,95.2088,VALID,0,VALID,18.3394,VALID,135,VALID,0,
2013-10-21, 01:12:04,VALID,917.465,VALID,0,VALID,95.2088,VALID,0,VALID,18.3004,VALID,135,VALID,0,
2013-10-21, 01:13:04,VALID,917.427,VALID,0,VALID,95.2012,VALID,0,VALID,18.3199,VALID,135,VALID,0,
2013-10-21, 01:14:04,VALID,917.387,VALID,0,VALID,95.2165,VALID,0,VALID,18.3199,VALID,135,VALID,0,
2013-10-21, 01:15:04,VALID,917.366,VALID,0,VALID,95.2241,VALID,0,VALID,18.3004,VALID,135,VALID,0,
2013-10-21, 01:16:04,VALID,917.329,VALID,0,VALID,95.2393,VALID,0,VALID,18.3213,VALID,135,VALID,0,
2013-10-21, 01:17:04,VALID,917.281,VALID,0,VALID,95.247,VALID,0,VALID,18.2628,VALID,124,VALID,0,
2013-10-21, 01:18:04,VALID,917.271,VALID,0,VALID,95.3003,VALID,0,VALID,18.2225,VALID,117,VALID,0,
2013-10-21, 01:19:04,VALID,917.267,VALID,0,VALID,95.3232,VALID,0,VALID,18.2433,VALID,118,VALID,0,
2013-10-21, 01:20:04,VALID,917.229,VALID,0,VALID,95.3537,VALID,0,VALID,18.2225,VALID,131,VALID,0,
2013-10-21, 01:21:04,VALID,917.215,VALID,0,VALID,95.3537,VALID,0,VALID,18.203,VALID,130,VALID,0,
2013-10-21, 01:22:04,VALID,917.233,VALID,0,VALID,95.3537,VALID,0,VALID,18.203,VALID,125,VALID,0,
2013-10-21, 01:23:04,VALID,917.223,VALID,0,VALID,95.3613,VALID,0.107441,VALID,18.2016,VALID,124,VALID,0,
2013-10-21, 01:24:04,VALID,917.178,VALID,0,VALID,95.3537,VALID,0,VALID,18.203,VALID,124,VALID,0,
2013-10-21, 01:25:04,VALID,917.172,VALID,0,VALID,95.3461,VALID,0,VALID,18.1821,VALID,124,VALID,0,
2013-10-21, 01:26:04,VALID,917.152,VALID,0,VALID,95.3461,VALID,0.107441,VALID,18.1626,VALID,124,VALID,0,
2013-10-21, 01:27:04,VALID,917.147,VALID,0,VALID,95.3766,VALID,0,VALID,18.1626,VALID,124,VALID,0,
2013-10-21, 01:28:04,VALID,917.128,VALID,0,VALID,95.4223,VALID,0,VALID,18.1626,VALID,124,VALID,0,
2013-10-21, 01:29:04,VALID,917.114,VALID,0,VALID,95.4833,VALID,0,VALID,18.1835,VALID,124,VALID,0,
2013-10-21, 01:30:04,VALID,917.097,VALID,0,VALID,95.5214,VALID,0,VALID,18.1431,VALID,124,VALID,0,
2013-10-21, 01:31:04,VALID,917.09,VALID,0,VALID,95.5748,VALID,0.107441,VALID,18.1041,VALID,124,VALID,0,
2013-10-21, 01:32:04,VALID,917.096,VALID,0,VALID,95.6281,VALID,0,VALID,18.086,VALID,124,VALID,0,
2013-10-21, 01:33:04,VALID,917.08,VALID,0,VALID,95.6891,VALID,0,VALID,18.086,VALID,124,VALID,0,
2013-10-21, 01:34:04,VALID,917.082,VALID,0,VALID,95.7501,VALID,0.107441,VALID,18.0665,VALID,124,VALID,0,
2013-10-21, 01:35:04,VALID,917.096,VALID,0,VALID,95.7958,VALID,0.107441,VALID,18.0457,VALID,124,VALID,0,
2013-10-21, 01:36:04,VALID,917.097,VALID,0,VALID,95.8492,VALID,0,VALID,18.0665,VALID,124,VALID,0,
2013-10-21, 01:37:04,VALID,917.089,VALID,0,VALID,95.895,VALID,0.107441,VALID,18.0262,VALID,124,VALID,0,
2013-10-21, 01:38:04,VALID,917.087,VALID,0,VALID,95.9331,VALID,0.107441,VALID,18.0067,VALID,124,VALID,0,
2013-10-21, 01:39:04,VALID,917.096,VALID,0,VALID,95.9636,VALID,0.107441,VALID,18.008,VALID,124,VALID,0,
2013-10-21, 01:40:04,VALID,917.118,VALID,0,VALID,96.0017,VALID,0.107441,VALID,18.008,VALID,124,VALID,0,
2013-10-21, 01:41:04,VALID,917.107,VALID,0,VALID,96.0322,VALID,0,VALID,17.9482,VALID,124,VALID,0,
2013-10-21, 01:42:04,VALID,917.105,VALID,0,VALID,96.0627,VALID,0.107441,VALID,17.9482,VALID,106,VALID,0,
2013-10-21, 01:43:04,VALID,917.14,VALID,0,VALID,96.1465,VALID,0,VALID,17.9691,VALID,106,VALID,0,
2013-10-21, 01:44:04,VALID,917.16,VALID,0,VALID,96.1694,VALID,0,VALID,17.9886,VALID,106,VALID,0,
2013-10-21, 01:45:04,VALID,917.154,VALID,0,VALID,96.1923,VALID,0,VALID,17.9886,VALID,106,VALID,0,
2013-10-21, 01:46:04,VALID,917.164,VALID,0,VALID,96.1999,VALID,0,VALID,17.9872,VALID,106,VALID,0,
2013-10-21, 01:47:04,VALID,917.153,VALID,0,VALID,96.1846,VALID,0,VALID,18.008,VALID,106,VALID,0,
2013-10-21, 01:48:04,VALID,917.146,VALID,0,VALID,96.177,VALID,0,VALID,17.9886,VALID,106,VALID,0,
2013-10-21, 01:49:04,VALID,917.153,VALID,0,VALID,96.1846,VALID,0,VALID,17.9886,VALID,106,VALID,0,
2013-10-21, 01:50:04,VALID,917.158,VALID,0,VALID,96.2075,VALID,0,VALID,17.9886,VALID,106,VALID,0,
2013-10-21, 01:51:04,VALID,917.144,VALID,0,VALID,96.2151,VALID,0,VALID,17.9872,VALID,106,VALID,0,
2013-10-21, 01:52:04,VALID,917.159,VALID,0,VALID,96.2075,VALID,0.107441,VALID,18.008,VALID,106,VALID,0,
2013-10-21, 01:53:04,VALID,917.157,VALID,0,VALID,96.2228,VALID,0,VALID,17.9872,VALID,106,VALID,0,
2013-10-21, 01:54:04,VALID,917.145,VALID,0,VALID,96.2151,VALID,0,VALID,17.9886,VALID,106,VALID,0,
2013-10-21, 01:55:04,VALID,917.132,VALID,0,VALID,96.2228,VALID,0.107441,VALID,17.9886,VALID,106,VALID,0,
2013-10-21, 01:56:04,VALID,917.15,VALID,0,VALID,96.2228,VALID,0,VALID,17.9677,VALID,106,VALID,0,
2013-10-21, 01:57:04,VALID,917.124,VALID,0,VALID,96.238,VALID,0,VALID,17.9496,VALID,106,VALID,0,
2013-10-21, 01:58:04,VALID,917.138,VALID,0,VALID,96.2304,VALID,0,VALID,17.9496,VALID,106,VALID,0,
2013-10-21, 01:59:04,VALID,917.156,VALID,0,VALID,96.2533,VALID,0,VALID,17.9301,VALID,106,VALID,0,
2013-10-21, 02:00:04,VALID,917.125,VALID,0,VALID,96.3066,VALID,0.107441,VALID,17.9092,VALID,106,VALID,0,
2013-10-21, 02:01:04,VALID,917.13,VALID,0,VALID,96.3142,VALID,0,VALID,17.9106,VALID,106,VALID,0,
2013-10-21, 02:02:04,VALID,917.127,VALID,0,VALID,96.3524,VALID,0,VALID,17.9106,VALID,106,VALID,0,
2013-10-21, 02:03:04,VALID,917.104,VALID,0,VALID,96.3829,VALID,0,VALID,17.8702,VALID,106,VALID,0,
2013-10-21, 02:04:04,VALID,917.129,VALID,0,VALID,96.4286,VALID,0.107441,VALID,17.8911,VALID,106,VALID,0,
2013-10-21, 02:05:04,VALID,917.103,VALID,0,VALID,96.4743,VALID,0.107441,VALID,17.8702,VALID,106,VALID,0,
2013-10-21, 02:06:04,VALID,917.155,VALID,0,VALID,96.4819,VALID,0,VALID,17.9301,VALID,106,VALID,0,
2013-10-21, 02:07:04,VALID,917.139,VALID,0,VALID,96.4896,VALID,0,VALID,17.9496,VALID,106,VALID,0,
2013-10-21, 02:08:04,VALID,917.15,VALID,0,VALID,96.5277,VALID,0,VALID,17.9496,VALID,106,VALID,0,
2013-10-21, 02:09:04,VALID,917.126,VALID,0,VALID,96.5734,VALID,0,VALID,17.9691,VALID,106,VALID,0,
2013-10-21, 02:10:04,VALID,917.13,VALID,0,VALID,96.5887,VALID,0,VALID,17.9886,VALID,106,VALID,0,
2013-10-21, 02:11:04,VALID,917.139,VALID,0,VALID,96.6192,VALID,0,VALID,17.9886,VALID,106,VALID,0,
2013-10-21, 02:12:04,VALID,917.156,VALID,0,VALID,96.6039,VALID,0,VALID,18.008,VALID,106,VALID,0,
2013-10-21, 02:13:04,VALID,917.152,VALID,0,VALID,96.6039,VALID,0,VALID,18.0275,VALID,106,VALID,0,
2013-10-21, 02:14:04,VALID,917.139,VALID,0,VALID,96.6192,VALID,0,VALID,18.0275,VALID,106,VALID,0,
2013-10-21, 02:15:04,VALID,917.138,VALID,0,VALID,96.6115,VALID,0,VALID,18.0484,VALID,106,VALID,0,
2013-10-21, 02:16:04,VALID,917.094,VALID,0,VALID,96.6192,VALID,0,VALID,18.008,VALID,106,VALID,0,
2013-10-21, 02:17:04,VALID,917.085,VALID,0,VALID,96.6192,VALID,0,VALID,18.0275,VALID,106,VALID,0,
2013-10-21, 02:18:04,VALID,917.085,VALID,0,VALID,96.642,VALID,0,VALID,18.0275,VALID,106,VALID,0,
2013-10-21, 02:19:04,VALID,917.091,VALID,0,VALID,96.6497,VALID,0,VALID,18.0275,VALID,106,VALID,0,
2013-10-21, 02:20:04,VALID,917.094,VALID,0,VALID,96.6573,VALID,0,VALID,18.0275,VALID,106,VALID,0,
2013-10-21, 02:21:04,VALID,917.089,VALID,0,VALID,96.6573,VALID,0,VALID,18.0275,VALID,106,VALID,0,
2013-10-21, 02:22:04,VALID,917.082,VALID,0,VALID,96.6497,VALID,0.107441,VALID,17.9872,VALID,106,VALID,0,
2013-10-21, 02:23:04,VALID,917.096,VALID,0,VALID,96.6497,VALID,0,VALID,17.9886,VALID,106,VALID,0,
2013-10-21, 02:24:04,VALID,917.112,VALID,0,VALID,96.6649,VALID,0,VALID,17.9886,VALID,133,VALID,0,
2013-10-21, 02:25:04,VALID,917.064,VALID,0,VALID,96.6573,VALID,0,VALID,17.9496,VALID,134,VALID,0,
2013-10-21, 02:26:04,VALID,917.063,VALID,0,VALID,96.6573,VALID,0,VALID,17.9301,VALID,133,VALID,0,
2013-10-21, 02:27:04,VALID,917.057,VALID,0,VALID,96.642,VALID,0,VALID,17.9301,VALID,133,VALID,0,
2013-10-21, 02:28:04,VALID,917.021,VALID,0,VALID,96.642,VALID,0,VALID,17.8897,VALID,134,VALID,0,
2013-10-21, 02:29:04,VALID,916.992,VALID,0,VALID,96.642,VALID,0,VALID,17.8897,VALID,133,VALID,0,
2013-10-21, 02:30:04,VALID,916.943,VALID,0,VALID,96.6268,VALID,0,VALID,17.9092,VALID,133,VALID,0,
2013-10-21, 02:31:04,VALID,916.934,VALID,0,VALID,96.6115,VALID,0,VALID,17.9496,VALID,133,VALID,0,
2013-10-21, 02:32:04,VALID,916.938,VALID,0,VALID,96.6039,VALID,0,VALID,17.9482,VALID,133,VALID,0,
2013-10-21, 02:33:04,VALID,916.964,VALID,0,VALID,96.5887,VALID,0,VALID,17.9691,VALID,133,VALID,0,
2013-10-21, 02:34:04,VALID,916.933,VALID,0,VALID,96.5658,VALID,0,VALID,17.9691,VALID,133,VALID,0,
2013-10-21, 02:35:04,VALID,916.908,VALID,0,VALID,96.5887,VALID,0,VALID,17.9691,VALID,133,VALID,0,
2013-10-21, 02:36:04,VALID,916.923,VALID,0,VALID,96.5582,VALID,0,VALID,17.9691,VALID,133,VALID,0,
2013-10-21, 02:37:04,VALID,916.942,VALID,0,VALID,96.5201,VALID,0,VALID,17.9496,VALID,133,VALID,0,
2013-10-21, 02:38:04,VALID,916.964,VALID,0,VALID,96.5201,VALID,0,VALID,17.9886,VALID,133,VALID,0,
2013-10-21, 02:39:04,VALID,916.972,VALID,0,VALID,96.5124,VALID,0,VALID,18.008,VALID,133,VALID,0,
2013-10-21, 02:40:04,VALID,916.938,VALID,0,VALID,96.4972,VALID,0,VALID,18.0275,VALID,133,VALID,0,
2013-10-21, 02:41:04,VALID,916.966,VALID,0,VALID,96.4896,VALID,0,VALID,18.008,VALID,133,VALID,0,
2013-10-21, 02:42:04,VALID,916.973,VALID,0,VALID,96.4743,VALID,0,VALID,18.0275,VALID,133,VALID,0,
2013-10-21, 02:43:04,VALID,916.998,VALID,0,VALID,96.4667,VALID,0,VALID,18.0275,VALID,134,VALID,0,
2013-10-21, 02:44:04,VALID,916.97,VALID,0,VALID,96.421,VALID,0,VALID,18.047,VALID,133,VALID,0,
2013-10-21, 02:45:04,VALID,916.967,VALID,0,VALID,96.4362,VALID,0.107441,VALID,18.047,VALID,133,VALID,0,
2013-10-21, 02:46:04,VALID,916.996,VALID,0,VALID,96.4286,VALID,0,VALID,18.0457,VALID,133,VALID,0,
2013-10-21, 02:47:04,VALID,917.003,VALID,0,VALID,96.4057,VALID,0.107441,VALID,18.0665,VALID,133,VALID,0,
2013-10-21, 02:48:04,VALID,917.009,VALID,0,VALID,96.3905,VALID,0.107441,VALID,18.047,VALID,133,VALID,0,
2013-10-21, 02:49:04,VALID,917.033,VALID,0,VALID,96.3447,VALID,0.107441,VALID,18.0275,VALID,133,VALID,0,
2013-10-21, 02:50:04,VALID,917.042,VALID,0,VALID,96.3371,VALID,0.107441,VALID,18.0262,VALID,133,VALID,0,
2013-10-21, 02:51:04,VALID,917.052,VALID,0,VALID,96.3524,VALID,0,VALID,18.086,VALID,134,VALID,0,
2013-10-21, 02:52:04,VALID,917.075,VALID,0,VALID,96.3447,VALID,0.107441,VALID,18.086,VALID,133,VALID,0,
2013-10-21, 02:53:04,VALID,917.06,VALID,0,VALID,96.36,VALID,0,VALID,18.0651,VALID,133,VALID,0,
2013-10-21, 02:54:04,VALID,917.058,VALID,0,VALID,96.3066,VALID,0,VALID,18.0665,VALID,133,VALID,0,
2013-10-21, 02:55:04,VALID,917.05,VALID,0,VALID,96.3219,VALID,0,VALID,18.047,VALID,102,VALID,0,
2013-10-21, 02:56:04,VALID,917.052,VALID,0,VALID,96.3219,VALID,0,VALID,18.0665,VALID,102,VALID,0,
2013-10-21, 02:57:04,VALID,917.073,VALID,0,VALID,96.3524,VALID,0,VALID,18.0457,VALID,102,VALID,0,
2013-10-21, 02:58:04,VALID,917.049,VALID,0,VALID,96.3676,VALID,0,VALID,18.086,VALID,102,VALID,0,
2013-10-21, 02:59:04,VALID,917.012,VALID,0,VALID,96.3829,VALID,0,VALID,18.086,VALID,102,VALID,0,
2013-10-21, 03:00:04,VALID,917.031,VALID,0,VALID,96.4133,VALID,0.107441,VALID,18.086,VALID,102,VALID,0,
2013-10-21, 03:01:04,VALID,917.028,VALID,0,VALID,96.4286,VALID,0,VALID,18.0665,VALID,102,VALID,0,
2013-10-21, 03:02:04,VALID,917.025,VALID,0,VALID,96.421,VALID,0,VALID,18.086,VALID,102,VALID,0,
2013-10-21, 03:03:04,VALID,917.035,VALID,0,VALID,96.4438,VALID,0,VALID,18.047,VALID,102,VALID,0,
2013-10-21, 03:04:04,VALID,917.024,VALID,0,VALID,96.4438,VALID,0,VALID,18.047,VALID,102,VALID,0,
2013-10-21, 03:05:04,VALID,917.002,VALID,0,VALID,96.4591,VALID,0,VALID,18.047,VALID,102,VALID,0,
2013-10-21, 03:06:04,VALID,916.986,VALID,0,VALID,96.4896,VALID,0,VALID,18.0665,VALID,102,VALID,0,
2013-10-21, 03:07:04,VALID,916.992,VALID,0,VALID,96.4972,VALID,0,VALID,18.0665,VALID,102,VALID,0,
2013-10-21, 03:08:04,VALID,916.964,VALID,0,VALID,96.5277,VALID,0,VALID,18.0665,VALID,102,VALID,0,
2013-10-21, 03:09:04,VALID,916.976,VALID,0,VALID,96.5124,VALID,0,VALID,18.0275,VALID,102,VALID,0,
2013-10-21, 03:10:04,VALID,916.937,VALID,0,VALID,96.5201,VALID,0,VALID,17.9886,VALID,102,VALID,0,
2013-10-21, 03:11:04,VALID,916.934,VALID,0,VALID,96.5201,VALID,0,VALID,18.008,VALID,102,VALID,0,
2013-10-21, 03:12:04,VALID,916.944,VALID,0,VALID,96.5277,VALID,0,VALID,18.008,VALID,102,VALID,0,
2013-10-21, 03:13:04,VALID,916.974,VALID,0,VALID,96.5201,VALID,0,VALID,18.008,VALID,102,VALID,0,
2013-10-21, 03:14:04,VALID,916.932,VALID,0,VALID,96.5124,VALID,0,VALID,18.008,VALID,102,VALID,0,
2013-10-21, 03:15:04,VALID,916.951,VALID,0,VALID,96.5048,VALID,0,VALID,18.0275,VALID,102,VALID,0,
2013-10-21, 03:16:04,VALID,916.924,VALID,0,VALID,96.4896,VALID,0,VALID,18.0289,VALID,102,VALID,0,
2013-10-21, 03:17:04,VALID,916.906,VALID,0,VALID,96.4819,VALID,0,VALID,18.008,VALID,102,VALID,0,
2013-10-21, 03:18:04,VALID,916.898,VALID,0,VALID,96.4743,VALID,0,VALID,18.0275,VALID,102,VALID,0,
2013-10-21, 03:19:04,VALID,916.876,VALID,0,VALID,96.4667,VALID,0,VALID,18.008,VALID,102,VALID,0,
2013-10-21, 03:20:04,VALID,916.877,VALID,0,VALID,96.4667,VALID,0,VALID,17.9886,VALID,3,VALID,0,
2013-10-21, 03:21:04,VALID,916.862,VALID,0,VALID,96.5048,VALID,0,VALID,17.9496,VALID,9,VALID,0,
2013-10-21, 03:22:04,VALID,916.844,VALID,0,VALID,96.5353,VALID,0,VALID,17.9691,VALID,25,VALID,0,
2013-10-21, 03:23:04,VALID,916.89,VALID,0,VALID,96.5429,VALID,0,VALID,17.9496,VALID,2,VALID,0,
2013-10-21, 03:24:04,VALID,916.895,VALID,0,VALID,96.5658,VALID,0,VALID,17.9092,VALID,328,VALID,0,
2013-10-21, 03:25:04,VALID,916.904,VALID,0,VALID,96.6192,VALID,0,VALID,17.9496,VALID,324,VALID,0,
2013-10-21, 03:26:04,VALID,916.872,VALID,0,VALID,96.6497,VALID,0,VALID,17.9301,INVALID,360,VALID,0,
2013-10-21, 03:27:04,VALID,916.891,VALID,0,VALID,96.6649,VALID,0,VALID,17.9496,VALID,343,VALID,0,
2013-10-21, 03:28:04,VALID,916.915,VALID,0,VALID,96.6954,VALID,0,VALID,17.9496,VALID,324,VALID,0,
2013-10-21, 03:29:04,VALID,916.89,VALID,0,VALID,96.7107,VALID,0,VALID,17.9496,VALID,17,VALID,0,
2013-10-21, 03:30:04,VALID,916.861,VALID,0,VALID,96.7335,VALID,0,VALID,17.9092,VALID,10,VALID,0,
2013-10-21, 03:31:04,VALID,916.905,VALID,0,VALID,96.7411,VALID,0,VALID,17.9301,VALID,1,VALID,0,
2013-10-21, 03:32:04,VALID,916.856,VALID,0,VALID,96.7564,VALID,0,VALID,17.9301,VALID,359,VALID,0,
2013-10-21, 03:33:04,VALID,916.883,VALID,0,VALID,96.7716,VALID,0,VALID,17.9301,VALID,7,VALID,0,
2013-10-21, 03:34:04,VALID,916.872,VALID,0,VALID,96.8021,VALID,0.107441,VALID,17.9301,VALID,348,VALID,0,
2013-10-21, 03:35:04,VALID,916.887,VALID,0,VALID,96.7869,VALID,0,VALID,17.9287,VALID,348,VALID,0,
2013-10-21, 03:36:04,VALID,916.844,VALID,0,VALID,96.8021,VALID,0,VALID,17.9691,VALID,336,VALID,0,
2013-10-21, 03:37:04,VALID,916.844,VALID,0,VALID,96.825,VALID,0.107441,VALID,17.9482,VALID,349,VALID,0,
2013-10-21, 03:38:04,VALID,916.848,VALID,0,VALID,96.8403,VALID,0.107441,VALID,17.9691,VALID,337,VALID,0,
2013-10-21, 03:39:04,VALID,916.858,VALID,0,VALID,96.8707,VALID,0,VALID,17.9691,VALID,14,VALID,0,
2013-10-21, 03:40:04,VALID,916.847,VALID,0,VALID,96.8403,VALID,0,VALID,17.9691,VALID,358,VALID,0,
2013-10-21, 03:41:04,VALID,916.841,VALID,0,VALID,96.8555,VALID,0,VALID,17.9482,VALID,6,VALID,0,
2013-10-21, 03:42:04,VALID,916.837,VALID,0,VALID,96.8403,VALID,0,VALID,17.9677,VALID,18,VALID,0,
2013-10-21, 03:43:04,VALID,916.822,VALID,0,VALID,96.8631,VALID,0,VALID,17.9886,VALID,14,VALID,0,
2013-10-21, 03:44:04,VALID,916.831,VALID,0,VALID,96.8784,VALID,0,VALID,17.9886,VALID,2,VALID,0,
2013-10-21, 03:45:04,VALID,916.861,VALID,0,VALID,96.8631,VALID,0,VALID,18.0262,VALID,2,VALID,0,
2013-10-21, 03:46:04,VALID,916.869,VALID,0,VALID,96.8479,VALID,0,VALID,18.047,VALID,6,VALID,0,
2013-10-21, 03:47:04,VALID,916.811,VALID,0,VALID,96.8403,VALID,0,VALID,18.086,VALID,11,VALID,0,
2013-10-21, 03:48:04,VALID,916.834,VALID,0,VALID,96.825,VALID,0,VALID,18.1055,VALID,3,VALID,0,
2013-10-21, 03:49:04,VALID,916.838,VALID,0,VALID,96.7793,VALID,0.107441,VALID,18.1236,VALID,358,VALID,0,
2013-10-21, 03:50:04,VALID,916.859,VALID,0,VALID,96.7411,VALID,0.107441,VALID,18.1431,VALID,358,VALID,0,
2013-10-21, 03:51:04,VALID,916.849,VALID,0,VALID,96.7259,VALID,0.107441,VALID,18.1626,VALID,11,VALID,0,
2013-10-21, 03:52:04,VALID,916.852,VALID,0,VALID,96.6878,VALID,0.107441,VALID,18.1835,VALID,356,VALID,0,
2013-10-21, 03:53:04,VALID,916.855,VALID,0,VALID,96.6649,VALID,0.107441,VALID,18.1821,VALID,10,VALID,0,
2013-10-21, 03:54:04,VALID,916.839,VALID,0,VALID,96.6344,VALID,0,VALID,18.203,VALID,358,VALID,0,
2013-10-21, 03:55:04,VALID,916.868,VALID,0,VALID,96.6192,VALID,0.107441,VALID,18.1821,VALID,358,VALID,0,
2013-10-21, 03:56:04,VALID,916.838,VALID,0,VALID,96.5963,VALID,0.107441,VALID,18.1821,VALID,350,VALID,0,
2013-10-21, 03:57:04,VALID,916.858,VALID,0,VALID,96.5353,VALID,0.107441,VALID,18.2225,VALID,336,VALID,0,